Regional Weather Roundup
Issued by NWS Pendleton, OR

Home | Current Version | Previous Version | Text Only | Print | Product List | Glossary On
Versions: 1 2 3 4 5 6 7 8 9 10 11 12 13 14 15 16 17 18 19 20 21 22 23 24 25 26 27 28 29 30 31 32 33 34 35 36 37 38 39 40 41 42 43 44 45 46 47 48 49 50
000
ASUS46 KPDT 302225
RWRPDT
PENDLETON REGIONAL WEATHER ROUNDUP
NATIONAL WEATHER SERVICE PENDLETON OREGON
300 PM PDT SUN AUG 30 2015

NOTE: FAIR INDICATES FEW OR NO CLOUDS BELOW 12,000 FEET WITH NO
SIGNIFICANT WEATHER AND/OR OBSTRUCTIONS TO VISIBILITY.

# INDICATES UNOFFICIAL STATION AND DATA

WAZ520-302310-
EAST SLOPES OF WASHINGTON CASCADES

CITY            SKY/WX      TMP DP  RH  WIND    PRES   REMARKS
#BULLFROG 2SW   N/A         58  45  62  W3      27.56R
#BUMPING DAM    N/A         52  N/A N/A S7      N/A
#CLE ELUM HS    N/A         61  43  51  N7      29.90R
#CLE ELUM LAKE  N/A         58  44  60  W1      29.89R
#CLIFFDEL 2NW   N/A         60  41  49  W7      N/A
#GLENWOOD       N/A         62  52  70  SW3     29.94S
#MANASTASH CYN  N/A         62  42  48  CALM    29.92R
#NELSON         N/A         62  47  58  CALM    29.90S
#NELSON 3SW     N/A         58  46  64  CALM    30.09R
#NILE           N/A         66  40  38  W5      29.16R
#RONALD 2NW     N/A         59  42  53  NW3     29.85R
#SNOWDEN        N/A         56  40  55  N3      N/A
#TEANAWAY 4NE   N/A         65  47  52  CALM    N/A
#TROUT LAKE 1NE N/A         63  51  65  NW9     29.96S
$$

WAZ521-302310-
SIMCOE HIGHLANDS

CITY            SKY/WX      TMP DP  RH  WIND    PRES   REMARKS
#BICKLETON HS   N/A         61  35  38  W12     N/A
#CENTERVILLE 4W N/A         66  48  52  CALM    29.74F
#CENTERVILLE 1SWN/A         63  48  58  W15     29.93R
#GOLDENDALE     N/A         63  47  56  W15G26  N/A
#GOLDENDALE 1NE N/A         64  36  35  SW7     N/A
#GOLDENDALE 5WNWN/A         64  48  56  W15     29.93S
#GOODNOE HILLS  N/A         70  48  46  W26     N/A
#LYLE 6NE       N/A         65  52  63  W10     29.93S
$$

WAZ026-302310-
KITTITAS VALLEY

CITY            SKY/WX      TMP DP  RH  WIND    PRES   REMARKS
ELLENSBURG AP   MOSUNNY     71  41  34  NW21G28 29.92R
YTC-OPS AREA    MOSUNNY     63  33  32  SW25G36 29.91
#ELLENSBURG CWU N/A         67  44  43  N15     29.83R
#ELLENSBURG 3NE N/A         66  45  47  N10     29.92R
#ELLENSBURG 1E  N/A         69  46  44  CALM    N/A
#KITTITAS 4N    N/A         68  42  39  N9      29.92S
#KITTITAS 3S    N/A         64  48  56  W6      29.86R
#THORP 6N       N/A         62  44  52  W18G30  29.89R
$$

WAZ027-302310-
YAKIMA VALLEY

CITY            SKY/WX      TMP DP  RH  WIND    PRES   REMARKS
SUNNYSIDE AP    PTCLDY      71  46  41  SW17G26 29.92S
YAKIMA AIRPORT  PTCLDY      75  40  28  VRB5    29.92R
YAKIMA-VAGABOND SUNNY       72  38  29  NW23G29 29.92R
#DONALD 2NE     N/A         76  22  13  S5      28.77S
#GRANDVIEW      N/A         72  41  33  W3      29.91S
#MABTON         N/A         73  47  40  SW15G26 29.92S
#MOXEE 2E       N/A         70  24  18  SW6     29.85R
#NACHES 2SW     N/A         69  46  44  W6      29.93S
#OUTLOOK DOT    N/A         N/A N/A N/A SW15    N/A
#SELAH 8E       N/A         69  37  31  W17G30  N/A
#TERRACE HTS    N/A         76  42  30  NW5     29.85R
#TOPPENISH      N/A         71  44  38  SW10    29.81R
#WAPATO 4NE     N/A         75  25  15  S6      28.77S
#W YAKIMA       N/A         70  41  35  NW6     29.88R
#WHITE SWAN 5E  N/A         73  47  40  SW15G26 29.89S
#WILEY CITY 3W  N/A         71  32  24  CALM    29.88S
$$

WAZ028-302310-
LOWER COLUMBIA BASIN...WASHINGTON

CITY            SKY/WX      TMP DP  RH  WIND    PRES   REMARKS
PASCO           PTCLDY      77  45  32  SW29G36 29.92F HAZE
#BENTON CITY    N/A         72  44  37  W13G25  29.80S
#CONNELL 5N     N/A         74  43  33  W13G26  29.88S
#CONNELL 5NW    N/A         71  45  39  W14     29.84F
#ELTOPIA 6NW    N/A         72  48  43  SW18G32 28.88F
#KAHLOTUS       N/A         67  50  54  SW8G35  29.88F
#KENNEWICK      N/A         58  45  62  W3      27.56R
#KENNEWICK 3S   N/A         72  49  44  N9G29   29.91S
#PATERSON       N/A         73  47  40  W15G28  29.92S
#PROSSER        N/A         74  39  28  NW13G26 29.89S
#SAGEMOOR 2W    N/A         69  47  45  SW3     29.74F
#TOUCHET 2S     N/A         74  49  41  SW13    29.93R
#WEST PASCO     N/A         77  50  39  S8      29.87F
$$

WAZ029-302310-
FOOTHILLS OF THE BLUES...WASHINGTON

CITY            SKY/WX      TMP DP  RH  WIND    PRES   REMARKS
WALLA WALLA AP  MOCLDY      67  52  59  S14     29.98F
#DAYTON SCHOOL  N/A         63  48  58  S7      29.98F
#LOWDEN 2SE     N/A         72  49  44  W10     29.92F
#PLEASANT VIEW 1N/A         65  52  63  SE21G30 29.93F
#PRESCOTT       N/A         65  58  78  S5      29.94F
#SUDBURY        N/A         72  N/A N/A CALM    N/A
#WHITMAN COLLEGEN/A         65  52  63  E2      29.99F
#WAITSBURG 8N   N/A         64  35  34  S13     29.82S
#WALLA WALLA U  N/A         67  55  65  CALM    29.93F
#WHITMAN MISSIONN/A         69  55  61  S9      29.96F
$$

WAZ030-302310-
BLUE MOUNTAINS...WASHINGTON

CITY            SKY/WX      TMP DP  RH  WIND    PRES   REMARKS
#SKI BLUEWOOD   N/A         47  44  89  NE7     30.03S
$$

ORZ009-041-WAZ024-302310-
COLUMBIA RIVER GORGE

CITY            SKY/WX      TMP DP  RH  WIND    PRES   REMARKS
THE DALLES AP   MOCLDY      73  51  46  N20G24  29.97R
#ARLINGTON AIRPON/A         72  48  43  W20     29.81F
#CELILO DOT     N/A         72  54  53  SW6     N/A
#MOSIER 1S      N/A         67  42  40  SW6     30.02R

$$

ORZ510-302310-
NORTH CENTRAL OREGON

CITY            SKY/WX      TMP DP  RH  WIND    PRES   REMARKS
#CHENOWITH 1W   N/A         65  48  54  NW17    N/A
#DUFUR 9E       N/A         60  49  67  W10     29.99S
#GRASS VALLEY 1SN/A         67  45  45  W22G30  29.97F
#KENT DOT       N/A         63  37  38  N17     N/A
#MAUPIN SCHOOL  N/A         70  48  46  W13     30.02R
#MORO SCHOOL    N/A         63  54  72  NW5     30.01S
#SHANIKO 5WSW   N/A         60  39  46  SW12    N/A
#SHANIKO 4NW    N/A         58  41  53  SW12    30.04R
#TYGH VALLEY 2NEN/A         68  47  47  W13     29.95R
#WAPANITIA AIRPON/A         66  47  50  W13     29.98R
#WASCO DOT      N/A         68  51  55  W10     N/A
#WASCO AIRPORT  N/A         67  45  45  NW7     N/A
#WASCO 5NE      N/A         68  48  49  W8      29.95F
$$

ORZ511-302310-
CENTRAL OREGON

CITY            SKY/WX      TMP DP  RH  WIND    PRES   REMARKS
BEND AIRPORT    PTCLDY      64  39  40  W17     30.06S
PRINEVILLE AP   MOCLDY      63  46  54  VRB5    30.05S
REDMOND AIRPORT CLOUDY      63  44  50  CALM    30.04F
#BEND 1SW       N/A         65  44  46  NW2     N/A
#BEND-AWBREY    N/A         67  46  47  W7      29.94R
#BEND-KIM LN    N/A         66  46  48  SW7     30.03S
#CULVER         N/A         66  46  48  W9      30.00S
#LAKE BILLY CHINN/A         63  19  18  SW7     30.08S
#MADRAS         N/A         65  43  45  W13     N/A
#POWELL BUTTE 3EN/A         61  47  60  N1      N/A
#POWELL BUTTE   N/A         65  45  48  W5      29.67F
#PRINEVILLE 3N  N/A         62  50  65  NE3     29.91F
#WARM SPRINGS   N/A         71  48  44  S8      29.98S

$$


ORZ509-302310-
EAST SLOPES OF OREGON CASCADES

CITY            SKY/WX      TMP DP  RH  WIND    PRES   REMARKS
#BLUE BOX PASS  N/A         47  -5  11  NW2     N/A
#CAMP SHERMAN   N/A         57  53  86  CALM    30.00R
#LA PINE 4NW    N/A         59  47  64  NW3     30.01F
#SISTERS AIRPOR N/A         61  52  72  N7      30.17S
#SISTERS 1NW    N/A         62  45  54  W8      N/A
#SISTERS 3N     N/A         62  46  56  NW3     30.08S
#SUNRIVER       N/A         60  46  60  W6      29.86S
#TUMALO 3W      N/A         61  42  50  W12     29.84R

$$

ORZ044-302310-
LOWER COLUMBIA BASIN...OREGON

CITY            SKY/WX      TMP DP  RH  WIND    PRES   REMARKS
HERMISTON       SUNNY       75  47  37  W15     29.96S
#BOARDMAN SCHOOLN/A         73  47  40  SW10    29.95F
#BOARDMAN 8SW   N/A         73  51  46  SW12    29.94S
#ECHO 8SW       N/A         73  46  38  W7      29.97S
#IONE SCHOOL    N/A         71  45  39  SW10    29.93F
#IRRIGON 4NW    N/A         74  49  41  SW17G26 N/A
#UMATILLA SCHOOLN/A         74  56  53  SE9     29.98R
#UMATILLA       N/A         73  47  40  SW13G24 29.87S
$$

ORZ507-302310-
NORTHERN FOOTHILLS OF THE BLUES

CITY            SKY/WX      TMP DP  RH  WIND    PRES   REMARKS
PENDLETON AIRPT MOCLDY      66  51  58  SE9     29.99S
#ADAMS 3WNW     N/A         63  55  75  SW3     29.95F
#ATHENA         N/A         64  54  70  CALM    29.97F
#CAYUSE         N/A         62  56  81  E3      29.95F
#HELIX SCHOOL   N/A         63  53  70  S8      29.95F
#HELIX 3N       N/A         63  51  65  S15     29.96F
#HOLDMAN 5SE    N/A         70  48  46  W15     29.99S
#HOLDMAN 6E     N/A         68  46  45  N13     29.75F
#M-F GROVE ELEM N/A         68  50  53  SW5     29.97F
#M-FREEWATER 5SEN/A         67  53  61  S3      29.99F
#PENDLETON DNTN N/A         68  52  57  SW2     30.01S
#PDT AQUATIC CTRN/A         66  51  58  SE7     29.94F
#PDT SUNRIDGE   N/A         65  54  68  E3      30.00F
#PENDLETON 7NW  N/A         69  50  51  CALM    32.07S
#TUTUILLA       N/A         63  53  70  CALM    29.98F
#UMAPINE 2E     N/A         70  57  63  S6      29.94F
#WESTON SCHOOL  N/A         61  50  67  W7      29.91F

$$

ORZ508-302310-
SOUTHERN FOOTHILLS OF THE BLUES

CITY            SKY/WX      TMP DP  RH  WIND    PRES   REMARKS
#AJAX           N/A         66  39  37  S14     29.93F
#CONDON SCHOOL  N/A         63  44  50  SW9     29.98S
#CONDON 5W      N/A         60  40  47  SW15G24 30.00S
#FOSSIL SCHOOL  N/A         66  51  58  CALM    29.94S
#HEPPNER EOC    N/A         69  41  36  W14     29.87F
#HEPPNER 4NE    N/A         68  41  37  W10G24  29.92F
#LEXINGTON 2SE  N/A         73  43  34  W14G26  29.96S
#OLEX 4N        N/A         69  48  47  W14     29.96S
#RUGGS 5NE      N/A         67  41  39  W9      30.17F
#RUGGS 2SW      N/A         67  41  39  W14     29.95S

$$

ORZ502-503-302310-
BLUE MOUNTAINS

CITY            SKY/WX      TMP DP  RH  WIND    PRES   REMARKS
MEACHAM         CLOUDY      55  48  77  VRB3    30.06R
#BATTLE MTN DOT N/A         55  51  86  S3      N/A
#HEPPNER 15SE   N/A         60  47  62  W1      29.96S
#LONG CREEK HS  N/A         53  51  93  CALM    30.03S
#N POWDER DOT   N/A         57  53  86  NE14    N/A
#PIKES PEAK     N/A         53  48  83  S14     27.99S
#TOLLGATE       N/A         46  45  96  SW5     29.92S
#TROY SCHOOL    N/A         63  51  65  S6      29.79R
#UKIAH          N/A         59  50  72  E3      30.01S
#WESTON 4E      N/A         55  51  86  S6      29.89S
$$

ORZ505-302310-
JOHN DAY BASIN

CITY            SKY/WX      TMP DP  RH  WIND    PRES   REMARKS
JOHN DAY        MOCLDY      63  47  56  N15     30.06R
#JOHN DAY KJDY  N/A         66  -37  1  SW3     30.31R
#DAYVILLE SCHOOLN/A         64  48  56  NW5     30.01F
#MITCHELL       N/A         61  53  75  CALM    30.20F
#MITCHELL 8NW   N/A         62  44  52  SW3     30.13F
#MONUMENT HS    N/A         62  48  60  SE6     30.04F
#SPRAY SCHOOL   N/A         69  N/A N/A CALM    N/A
$$

ORZ506-302310-
OCHOCO AND JOHN DAY HIGHLANDS

CITY            SKY/WX      TMP DP  RH  WIND    PRES   REMARKS
#PINE MTN OBS   N/A         51  41  68  W5      N/A
#PRAIRIE CITY   N/A         63  47  56  W5      29.96R
#SENECA         N/A         65  N/A N/A N6      N/A
#SENECA 9NW     N/A         61  43  51  SW1     29.90R
$$

ORZ049-302310-
GRANDE RONDE VALLEY

CITY            SKY/WX      TMP DP  RH  WIND    PRES   REMARKS
LA GRANDE       CLOUDY      61  45  56  E3      30.05R
#COVE           N/A         55  55  100 W1      30.07S
#COVE SCHOOL    N/A         56  52  86  CALM    30.08S
#COVE 6NW       N/A         55  51  86  CALM    30.03R
#ELGIN 3N       N/A         59  49  69  S2      30.00S
#ELGIN 1E       N/A         57  52  83  CALM    N/A
#ISLAND CITY 4N N/A         71  57  61  W1      30.00S
#LADD CYN DOT   N/A         58  53  83  NE3     N/A
#LA GRANDE ELEM N/A         59  51  75  SW7     30.05R
#UNION 1S       N/A         57  53  86  CALM    29.89R
$$

ORZ050-302310-
WALLOWA COUNTY

CITY            SKY/WX      TMP DP  RH  WIND    PRES   REMARKS
#ENTERPRISE HS  N/A         53  49  86  VRB3    30.05R
#IMNAHA SCHOOL  N/A         66  47  50  N2      29.98R
#IMNAHA 10S     N/A         61  47  60  SW6     30.02R
#JOSEPH 3N      N/A         52  45  77  N10     30.06R
#JOSEPH 3W      N/A         52  50  93  NE5     29.91R
#LOSTINE        N/A         52  49  89  N7      29.74R
#MT HOWARD 8000 N/A         41  36  82  W8      30.14S
#PROMISE 1S     N/A         52  47  83  E2      30.09R
#WALLOWA SCHOOL N/A         57  49  75  CALM    30.01R



$$



USA.gov is the U.S. government's official web portal to all federal, state and local government web resources and services.